WA8SIE Weather Reports


time (UTC)temp
F
wind
direction
speed
knots
gust
knots
rain 1hr
in
rain 24hr
in
rain mn
in
humidity
%
barometer
mb
20260903104011 72 198 1.7 1.7 0.00 0.00 0.00 100 1012.5
20260903103510 72 199 0.0 0.0 0.00 0.00 0.00 100 1012.5
20260903103011 72 199 0.0 0.0 0.00 0.00 0.00 100 1012.5
20260903102512 72 198 0.0 0.0 0.00 0.00 0.00 100 1012.4
20260903101511 72 198 0.0 0.0 0.00 0.00 0.00 100 1012.4
20260903101011 72 198 0.0 1.7 0.00 0.00 0.00 100 1012.3
20260903100510 72 199 0.0 1.7 0.00 0.00 0.00 100 1012.3
20260903100011 72 198 0.0 2.6 0.00 0.00 0.00 100 1012.3
20260903095511 72 199 0.0 2.6 0.00 0.00 0.00 100 1012.4
20260903095011 72 199 0.0 0.0 0.00 0.00 0.00 100 1012.4
20260903094511 72 199 0.0 0.0 0.00 0.00 0.00 100 1012.4
20260903094011 72 198 0.0 0.0 0.00 0.00 0.00 100 1012.3
20260903093512 72 199 0.0 0.0 0.00 0.00 0.00 100 1012.3
20260903093011 72 199 0.0 0.0 0.00 0.00 0.00 100 1012.3
20260903092511 72 199 0.0 0.0 0.00 0.00 0.00 100 1012.2
20260903092011 72 198 0.0 0.0 0.00 0.00 0.00 100 1012.2
20260903091511 72 199 0.0 0.0 0.00 0.00 0.00 100 1012.2
20260903091010 73 198 0.0 0.0 0.00 0.00 0.00 100 1012.0
20260903090511 73 198 0.0 0.0 0.00 0.00 0.00 100 1012.0
20260903090010 73 198 0.0 0.0 0.00 0.00 0.00 100 1012.0
20260903085011 73 198 0.0 0.0 0.00 0.00 0.00 100 1012.0
20260903084512 73 198 0.0 0.0 0.00 0.00 0.00 100 1012.0
20260903084010 73 198 0.0 0.0 0.00 0.00 0.00 100 1012.0
20260903083511 73 199 0.0 0.0 0.00 0.00 0.00 100 1012.0
20260903083010 73 198 0.0 0.0 0.00 0.00 0.00 100 1012.0
20260903082511 73 199 0.0 0.0 0.00 0.00 0.00 100 1012.1
20260903082010 73 199 0.0 0.0 0.00 0.00 0.00 100 1012.1
20260903081510 73 199 0.0 0.0 0.00 0.00 0.00 100 1012.1
20260903081011 73 199 0.0 0.0 0.00 0.00 0.00 100 1012.1
20260903080510 73 199 0.0 0.0 0.00 0.00 0.00 100 1012.1
20260903075510 74 198 0.0 1.7 0.00 0.00 0.00 100 1012.1
20260903074511 74 199 0.0 0.0 0.00 0.00 0.00 100 1012.1
20260903074010 74 199 0.0 0.0 0.00 0.00 0.00 100 1012.0
20260903073510 74 199 0.0 0.0 0.00 0.00 0.00 100 1012.0
20260903073010 74 199 0.0 0.0 0.00 0.00 0.00 100 1012.0
20260903072512 74 198 0.0 0.0 0.00 0.00 0.00 100 1011.9
20260903072010 74 199 0.0 0.0 0.00 0.00 0.00 100 1011.9
20260903071012 74 199 0.0 0.0 0.00 0.00 0.00 100 1011.9
20260903070512 74 199 0.0 0.0 0.00 0.00 0.00 100 1011.9
20260903065510 74 199 0.0 0.0 0.00 0.00 0.00 100 1011.9
20260903064512 74 199 0.0 0.0 0.00 0.00 0.00 100 1011.9
20260903064010 75 199 0.0 0.0 0.00 0.00 0.00 100 1011.7
20260903063512 75 199 0.0 0.0 0.00 0.00 0.00 100 1011.7
20260903062510 75 199 0.0 0.0 0.00 0.00 0.00 100 1011.8
20260903062010 75 199 0.0 0.0 0.00 0.00 0.00 100 1011.8
20260903061512 75 199 0.0 0.0 0.00 0.00 0.00 100 1011.8
20260903061010 75 199 0.0 0.0 0.00 0.00 0.00 100 1011.8
20260903060510 75 198 0.0 0.0 0.00 0.00 0.00 100 1011.8
20260903060011 75 199 0.0 0.0 0.00 0.00 0.00 100 1011.8
20260903055513 75 199 0.0 0.0 0.00 0.00 0.00 100 1011.8
20260903055011 75 198 0.0 0.0 0.00 0.00 0.00 100 1011.8
20260903054013 75 198 0.0 0.0 0.00 0.00 0.00 100 1011.8
20260903053511 75 198 0.0 0.0 0.00 0.00 0.00 100 1011.8
20260903053011 75 199 0.0 0.0 0.00 0.00 0.00 100 1011.8
20260903052511 75 199 0.0 0.0 0.00 0.00 0.00 100 1011.8
20260903051511 76 198 0.0 0.0 0.00 0.00 0.00 99 1011.8
20260903051011 76 198 0.0 0.0 0.00 0.00 0.00 99 1011.8
20260903050511 76 199 0.0 0.0 0.00 0.00 0.00 99 1011.8
20260903050011 76 199 0.0 0.0 0.00 0.00 0.00 99 1011.8
20260903045511 76 199 0.0 0.0 0.00 0.00 0.00 99 1011.8
20260903045011 76 199 0.0 0.0 0.00 0.00 0.00 99 1011.8
20260903044511 76 198 0.0 0.0 0.00 0.00 0.00 99 1011.8
20260903044011 76 199 0.0 0.0 0.00 0.00 0.00 99 1011.7
20260903043511 76 198 0.0 0.0 0.00 0.00 0.00 98 1011.7
20260903043011 76 198 0.0 2.6 0.00 0.00 0.00 98 1011.7
20260903042013 76 199 0.0 0.0 0.00 0.00 0.00 98 1011.7
20260903041511 76 198 0.0 0.0 0.00 0.00 0.00 98 1011.7
20260903041011 76 198 0.0 0.0 0.00 0.00 0.00 98 1011.8
20260903040511 76 199 0.0 0.0 0.00 0.00 0.00 97 1011.8
20260903040011 77 198 0.0 1.7 0.00 0.00 0.00 97 1011.8
20260903035511 77 198 0.0 1.7 0.00 0.00 0.00 97 1011.8
20260903035011 77 199 0.0 0.0 0.00 0.00 0.00 97 1011.8
20260903034511 77 199 0.0 0.0 0.00 0.00 0.00 97 1011.8
20260903034012 77 198 0.0 0.0 0.00 0.00 0.00 97 1011.9
20260903033512 77 198 0.0 0.0 0.00 0.00 0.00 96 1011.9
20260903033011 77 199 0.0 0.0 0.00 0.00 0.00 96 1011.9
20260903032511 77 199 0.0 0.0 0.00 0.00 0.00 96 1011.9
20260903031511 77 199 0.0 0.0 0.00 0.00 0.00 95 1011.9
20260903031011 77 199 0.0 0.0 0.00 0.00 0.00 95 1012.0
20260903030512 78 199 0.0 0.0 0.00 0.00 0.00 95 1012.0
20260903030011 78 199 0.0 0.0 0.00 0.00 0.00 95 1012.0
20260903025511 78 199 0.0 0.0 0.00 0.00 0.00 95 1011.9
20260903025012 78 199 0.0 0.0 0.00 0.00 0.00 95 1011.9
20260903024510 78 198 0.0 0.0 0.00 0.00 0.00 95 1011.9
20260903024011 78 199 0.0 0.0 0.00 0.00 0.00 94 1011.9
20260903023511 78 199 0.0 0.0 0.00 0.00 0.00 94 1011.9
20260903023011 78 199 0.0 0.0 0.00 0.00 0.00 94 1011.9
20260903022510 78 199 0.0 0.0 0.00 0.00 0.00 94 1011.8
20260903022012 78 198 0.0 0.0 0.00 0.00 0.00 94 1011.8
20260903021011 79 199 0.0 0.9 0.00 0.00 0.00 93 1011.9
20260903020510 79 199 0.0 0.9 0.00 0.00 0.00 92 1011.9
20260903020011 79 199 0.0 0.0 0.00 0.00 0.00 92 1011.9
20260903015011 79 199 0.0 0.0 0.00 0.00 0.00 91 1012.0
20260903014511 80 199 0.0 0.0 0.00 0.00 0.00 91 1012.0
20260903014012 80 199 0.0 0.0 0.00 0.00 0.00 91 1011.9
20260903013512 80 199 0.0 0.0 0.00 0.00 0.00 91 1011.9
20260903013010 80 199 0.0 0.0 0.00 0.00 0.00 90 1011.9
20260903012511 80 199 0.0 0.0 0.00 0.00 0.00 90 1011.8
20260903012011 80 199 0.0 0.0 0.00 0.00 0.00 89 1011.8
20260903011510 80 198 0.0 0.0 0.00 0.00 0.00 88 1011.8
20260903011011 81 198 0.0 0.0 0.00 0.00 0.00 88 1011.6
20260903010510 81 199 0.0 0.0 0.00 0.00 0.00 87 1011.6
20260903010011 81 199 0.0 0.0 0.00 0.00 0.00 87 1011.6
20260903005512 81 199 0.0 0.0 0.00 0.00 0.00 86 1011.5
20260903005011 81 199 0.0 0.0 0.00 0.00 0.00 85 1011.5
20260903004512 81 198 0.0 0.0 0.00 0.00 0.00 84 1011.5
20260903004011 82 199 0.0 0.9 0.00 0.00 0.00 83 1011.4
20260903003510 82 199 0.0 0.9 0.00 0.00 0.00 83 1011.4
20260903003010 82 199 0.0 0.0 0.00 0.00 0.00 82 1011.4
20260903002511 83 198 0.0 0.0 0.00 0.00 0.00 81 1011.4
20260903002010 83 198 0.0 0.9 0.00 0.00 0.00 79 1011.4
20260903001510 83 199 0.0 2.6 0.00 0.00 0.00 79 1011.4
20260903001011 83 199 0.0 2.6 0.00 0.00 0.00 78 1011.4
20260903000010 84 198 0.0 0.0 0.00 0.00 0.00 77 1011.4
20260902235510 84 199 0.0 0.0 0.00 0.00 0.00 77 1011.3
20260902235011 84 199 0.0 0.0 0.00 0.00 0.00 76 1011.3
20260902234510 84 198 0.0 0.0 0.00 0.00 0.00 76 1011.3
20260902233510 85 198 0.0 0.0 0.00 0.00 0.00 73 1011.3
20260902233010 85 199 0.0 0.0 0.00 0.00 0.00 71 1011.3
20260902232010 86 198 0.0 0.0 0.00 0.00 0.00 70 1011.3
20260902231010 87 199 0.0 0.0 0.00 0.00 0.00 67 1011.4
20260902230512 87 198 0.0 0.0 0.00 0.00 0.00 65 1011.4
20260902225510 88 199 0.0 0.0 0.00 0.00 0.00 66 1011.4
20260902225010 89 199 0.0 0.0 0.00 0.00 0.00 64 1011.4
20260902224510 89 199 0.0 0.0 0.00 0.00 0.00 63 1011.4
20260902224010 89 198 0.0 0.0 0.00 0.00 0.00 63 1011.3
20260902223510 90 199 0.0 0.0 0.00 0.00 0.00 60 1011.3
20260902222011 91 199 0.0 0.0 0.00 0.00 0.00 60 1011.4
20260902221511 91 199 0.0 0.0 0.00 0.00 0.00 53 1011.4
20260902221010 91 199 0.0 0.0 0.00 0.00 0.00 57 1011.5
20260902220511 91 199 0.0 0.0 0.00 0.00 0.00 53 1011.5
20260902220011 91 199 0.0 0.9 0.00 0.00 0.00 52 1011.5
20260902215511 91 199 0.0 2.6 0.00 0.00 0.00 51 1011.5
20260902215011 92 199 0.0 4.3 0.00 0.00 0.00 51 1011.5
20260902214511 92 178 0.0 4.3 0.00 0.00 0.00 49 1011.5
20260902214013 92 197 0.0 1.7 0.00 0.00 0.00 50 1011.4
20260902213513 92 198 0.0 3.5 0.00 0.00 0.00 49 1011.4
20260902213011 92 198 0.0 3.5 0.00 0.00 0.00 48 1011.4
20260902212511 92 197 0.0 3.5 0.00 0.00 0.00 49 1011.5
20260902211011 92 180 0.0 2.6 0.00 0.00 0.00 53 1011.8
20260902210511 92 179 0.0 2.6 0.00 0.00 0.00 49 1011.8
20260902210011 92 233 0.0 1.7 0.00 0.00 0.00 49 1011.8
20260902205511 92 301 0.9 1.7 0.00 0.00 0.00 53 1011.9
20260902205011 92 184 0.0 0.0 0.00 0.00 0.00 49 1011.9
20260902204012 92 184 0.0 0.0 0.00 0.00 0.00 55 1011.9
20260902203011 93 304 0.0 0.0 0.00 0.00 0.00 55 1011.9
20260902202511 93 303 0.0 0.0 0.00 0.00 0.00 51 1011.9
20260902201011 93 195 0.0 4.3 0.00 0.00 0.00 48 1012.0
20260902200511 93 205 0.0 4.3 0.00 0.00 0.00 49 1012.0
20260902200011 93 129 0.0 4.3 0.00 0.00 0.00 48 1012.0
20260902195511 93 191 0.0 4.3 0.00 0.00 0.00 51 1012.3
20260902195013 93 188 0.0 5.2 0.00 0.00 0.00 48 1012.3
20260902194511 94 200 0.0 5.2 0.00 0.00 0.00 48 1012.3
20260902194013 94 332 0.0 1.7 0.00 0.00 0.00 49 1012.3
20260902193511 94 201 0.0 0.0 0.00 0.00 0.00 48 1012.3
20260902193012 94 201 0.0 0.0 0.00 0.00 0.00 49 1012.3
20260902192511 93 200 0.0 0.0 0.00 0.00 0.00 50 1012.4
20260902192011 93 201 0.0 3.5 0.00 0.00 0.00 50 1012.4
20260902191513 93 201 0.0 3.5 0.00 0.00 0.00 49 1012.4
20260902191012 94 190 0.0 0.9 0.00 0.00 0.00 50 1012.4
20260902190511 93 138 0.0 7.8 0.00 0.00 0.00 49 1012.4
20260902185511 93 201 0.0 5.2 0.00 0.00 0.00 50 1012.6
20260902185011 94 217 1.7 0.0 0.00 0.00 0.00 50 1012.6
20260902184511 94 293 0.0 0.0 0.00 0.00 0.00 52 1012.6
20260902184011 93 0.0 0.0 0.00 0.00 0.00 52 1012.8
20260902183511 93 186 0.0 6.1 0.00 0.00 0.00 51 1012.8
20260902183013 93 186 0.0 6.1 0.00 0.00 0.00 49 1012.8
20260902182514 94 227 0.0 3.5 0.00 0.00 0.00 51 1012.8
20260902182010 93 272 0.0 3.5 0.00 0.00 0.00 53 1012.8
20260902181011 93 202 0.0 3.5 0.00 0.00 0.00 52 1013.0
20260902180511 93 214 0.0 4.3 0.00 0.00 0.00 52 1013.0
20260902180011 92 197 0.0 4.3 0.00 0.00 0.00 52 1013.0
20260902174510 91 198 0.0 0.9 0.00 0.00 0.00 54 1013.2
20260902174012 91 198 0.0 0.9 0.00 0.00 0.00 55 1013.4
20260902173511 91 197 0.0 0.0 0.00 0.00 0.00 58 1013.4
20260902172512 92 197 0.0 3.5 0.00 0.00 0.00 55 1013.6
20260902172011 92 330 0.0 3.5 0.00 0.00 0.00 56 1013.6
20260902171511 92 322 0.0 2.6 0.00 0.00 0.00 56 1013.6
20260902171010 91 274 0.0 0.0 0.00 0.00 0.00 58 1013.8
20260902170011 91 204 0.0 4.3 0.00 0.00 0.00 57 1013.8
20260902165510 91 188 0.0 2.6 0.00 0.00 0.00 58 1014.1
20260902165011 91 207 0.0 7.8 0.00 0.00 0.00 58 1014.1
20260902164012 91 177 4.3 6.1 0.00 0.00 0.00 59 1014.4
20260902163512 91 214 0.0 0.0 0.00 0.00 0.00 58 1014.4
20260902163010 91 214 0.0 2.6 0.00 0.00 0.00 60 1014.4
20260902162511 91 214 0.0 2.6 0.00 0.00 0.00 58 1014.5
20260902162010 90 195 0.0 0.0 0.00 0.00 0.00 60 1014.5
20260902161511 90 195 0.0 0.0 0.00 0.00 0.00 61 1014.5
20260902161012 90 215 0.0 0.0 0.00 0.00 0.00 63 1014.6
20260902160510 90 215 0.0 0.0 0.00 0.00 0.00 61 1014.6
20260902160011 90 215 0.0 1.7 0.00 0.00 0.00 65 1014.6
20260902155511 90 304 0.0 5.2 0.00 0.00 0.00 63 1014.6
20260902155012 90 268 0.0 5.2 0.00 0.00 0.00 61 1014.6
20260902154511 90 271 0.0 0.0 0.00 0.00 0.00 63 1014.6
20260902154011 89 255 0.0 0.0 0.00 0.00 0.00 63 1014.7
20260902153510 89 225 0.0 0.0 0.00 0.00 0.00 64 1014.7
20260902153011 88 223 0.0 0.0 0.00 0.00 0.00 65 1014.7
20260902152510 88 214 0.0 0.0 0.00 0.00 0.00 66 1014.7
20260902152011 88 148 0.0 0.0 0.00 0.00 0.00 66 1014.7
20260902151511 87 163 0.0 0.0 0.00 0.00 0.00 66 1014.7
20260902151011 86 179 0.0 0.0 0.00 0.00 0.00 67 1014.5
20260902150510 86 141 0.0 0.0 0.00 0.00 0.00 68 1014.5
20260902150010 86 181 0.0 0.0 0.00 0.00 0.00 70 1014.5
20260902145512 85 223 0.0 0.0 0.00 0.00 0.00 70 1014.5
20260902144510 85 276 0.0 0.0 0.00 0.00 0.00 72 1014.5
20260902143510 84 205 0.0 0.0 0.00 0.00 0.00 71 1014.6
20260902143010 84 204 0.0 0.0 0.00 0.00 0.00 74 1014.6
20260902141512 83 203 0.0 0.0 0.00 0.00 0.00 77 1014.6
20260902141011 82 203 0.0 0.0 0.00 0.00 0.00 79 1014.4
20260902140511 81 203 0.0 0.0 0.00 0.00 0.00 79 1014.4
20260902140010 81 204 0.0 0.0 0.00 0.00 0.00 82 1014.4
20260902135510 80 110 0.0 0.0 0.00 0.00 0.00 83 1014.4
20260902135010 80 110 0.0 0.0 0.00 0.00 0.00 84 1014.4
20260902134511 80 110 0.0 0.0 0.00 0.00 0.00 83 1014.4
20260902134011 79 111 0.0 0.0 0.00 0.00 0.00 84 1014.5
20260902133511 79 111 0.0 0.0 0.00 0.00 0.00 87 1014.5
20260902133011 78 183 0.0 0.0 0.00 0.00 0.00 88 1014.5
20260902131511 77 181 0.0 0.0 0.00 0.00 0.00 90 1014.5
20260902131011 77 182 0.0 0.0 0.00 0.00 0.00 91 1014.4
20260902130511 77 181 0.0 0.0 0.00 0.00 0.00 93 1014.4
20260902130011 76 181 0.0 0.0 0.00 0.00 0.00 95 1014.4
20260902125511 76 181 0.0 0.0 0.00 0.00 0.00 98 1014.5
20260902125011 75 181 0.0 0.0 0.00 0.00 0.00 99 1014.5
20260902124511 75 181 0.0 0.0 0.00 0.00 0.00 100 1014.5
20260902124011 75 181 0.0 0.0 0.00 0.00 0.00 100 1014.4
20260902123511 74 181 0.0 0.0 0.00 0.00 0.00 100 1014.4
20260902123011 74 182 0.0 0.0 0.00 0.00 0.00 100 1014.4
20260902122511 73 181 0.0 0.0 0.00 0.00 0.00 100 1014.4
20260902122011 73 181 0.0 0.0 0.00 0.00 0.00 100 1014.4
20260902121513 72 181 0.0 0.0 0.00 0.00 0.00 100 1014.4
20260902121011 72 181 0.0 0.0 0.00 0.00 0.00 100 1014.6
20260902120511 72 181 0.0 0.0 0.00 0.00 0.00 100 1014.6
20260902115511 71 181 0.0 0.0 0.00 0.00 0.00 100 1014.4
20260902115011 71 181 0.0 0.0 0.00 0.00 0.00 100 1014.4
20260902114511 71 181 0.0 0.0 0.00 0.00 0.00 100 1014.4
20260902114011 70 181 0.0 0.0 0.00 0.00 0.00 100 1014.3
20260902113511 70 181 0.0 2.6 0.00 0.00 0.00 100 1014.3
20260902113011 70 182 0.0 2.6 0.00 0.00 0.00 100 1014.3
20260902112511 70 182 0.0 0.0 0.00 0.00 0.00 100 1014.1
20260902111511 70 181 0.0 1.7 0.00 0.00 0.00 100 1014.1
20260902111011 70 181 0.0 0.0 0.00 0.00 0.00 100 1014.1
20260902110511 70 181 0.0 0.0 0.00 0.00 0.00 100 1014.1
20260902110012 70 182 0.0 0.0 0.00 0.00 0.00 100 1014.1
20260902105512 70 181 0.0 0.0 0.00 0.00 0.00 100 1014.1
20260902105012 70 181 0.0 0.0 0.00 0.00 0.00 100 1014.1
20260902104511 70 181 0.0 0.0 0.00 0.00 0.00 100 1014.1